SAUDISAT 1A 1 26545U 00057A 10251.82919169 -.00000047 00000-0 12947-4 0 6231 2 26545 64.5574 175.0048 0034277 207.0438 152.8869 14.80727222537624 UNISAT 1 26547U 00057C 10251.71386271 .00000055 00000-0 25231-4 0 6680 2 26547 64.5554 156.3975 0040482 206.9676 152.9341 14.82596944538008 SAUDISAT 1B 1 26549U 00057E 10252.81504828 -.00000007 00000-0 18447-4 0 7145 2 26549 64.5582 191.0988 0038813 206.8531 153.0588 14.79578844537385 MOZHAYETS 1 27560U 02054B 10252.65626026 .00000035 00000-0 18197-4 0 6775 2 27560 97.9199 77.3684 0041921 249.8355 109.8330 14.55124124412116 SAUDISAT 1C 1 27607U 02058C 10251.66565105 .00000009 00000-0 23182-4 0 2644 2 27607 64.5578 102.9571 0040104 40.2609 320.1412 14.71572711414664 UNISAT 2 1 27608U 02058D 10252.71846554 .00000021 00000-0 23725-4 0 2739 2 27608 64.5573 58.7975 0030219 12.3391 347.8421 14.74531250415674 SAUDISAT 2 1 28371U 04025F 10252.83541050 -.00000011 00000-0 75539-5 0 9850 2 28371 97.9680 282.1915 0027553 92.6941 267.7400 14.52982071328663 UNISAT 3 1 28373U 04025H 10252.49046649 -.00000042 00000-0 11937-6 0 7437 2 28373 98.0376 249.4273 0071366 173.3377 186.8788 14.43408871326954 SSETI EXPRESS (XO-53) 1 28894U 05043E 10251.71210060 .00000035 00000-0 16810-4 0 8615 2 28894 97.9957 132.7218 0018338 28.4857 331.7343 14.59749603259288 SAUDISAT 3 1 31118U 07012B 10252.73620732 -.00000019 00000-0 49685-5 0 5729 2 31118 97.9626 320.4771 0014204 246.1272 113.8443 14.68057720182133